Location: Campolattaro
(41.2833°N, 14.7333°E)
Time: 01:07:29
(UTC+00:00)

Cosmos 1980 Rocket - Pass Details

Date: 19 May 2025
Orbit: 829 x 848 km, 71.0° (Epoch: 23 June)

Event Time Altitude Azimuth Distance (km) Brightness Sun altitude
Rises 22:32:59 0° 320° (NW) 3,379 6.1 -28.5°
Reaches altitude 10° 22:36:07 10° 302° (WNW) 2,442 5.0 -28.5°
Enters shadow 22:39:29 18° 265° (W) 1,921 4.0 -28.6°
